Location: Lombard
(41.8800°N, 88.0080°W)
Time: 10:20:08
(UTC-06:00)

S-56A Canister/Altair - All Passes

Search period start: 29 January 2023 00:00
Search period end: 08 February 2023 00:00
Orbit: 639 x 2493 km, 38.9° (Epoch: 28 January)

Date Brightness Start Highest point End Pass type
(mag) Time Alt. Az. Time Alt. Az. Time Alt. Az.
29 Jan - 10:19:33 10° SSE 10:20:46 11° SE 10:22:04 10° ESE daylight
29 Jan - 12:18:19 10° SW 12:23:13 45° SSE 12:30:04 10° E daylight
29 Jan - 14:20:49 10° W 14:26:59 72° S 14:36:25 10° E daylight
29 Jan - 16:24:01 10° W 16:31:33 57° SSW 16:42:52 10° ESE daylight
29 Jan - 18:28:19 10° W 18:36:21 30° SSW 18:46:57 10° SSE visible
30 Jan - 11:46:05 10° SW 11:50:39 39° SSE 11:56:44 10° E daylight
30 Jan - 13:48:26 10° WSW 13:54:10 70° S 14:02:52 10° E daylight
30 Jan - 15:51:30 10° W 15:58:33 59° SSW 16:09:15 10° ESE daylight
30 Jan - 17:55:31 10° W 18:03:14 32° SSW 18:13:42 10° SSE visible
31 Jan - 11:13:52 10° SW 11:18:06 33° SSE 11:23:29 10° E daylight
31 Jan - 13:16:03 10° WSW 13:21:25 68° S 13:29:23 10° E daylight
31 Jan - 15:19:02 10° W 15:25:36 61° SSW 15:35:39 10° ESE daylight
31 Jan - 17:22:47 10° W 17:30:10 34° SSW 17:40:24 10° SSE visible
31 Jan - 19:31:28 10° WSW 19:34:43 12° SW 19:38:14 10° SSW visible
01 Feb - 10:41:41 10° SSW 10:45:35 27° SSE 10:50:17 10° E daylight
01 Feb - 12:43:40 10° WSW 12:48:44 65° S 12:56:00 10° E daylight
01 Feb - 14:46:35 10° W 14:52:44 62° S 15:02:04 10° ESE daylight
01 Feb - 16:50:09 10° W 16:57:09 35° SSW 17:07:03 10° SSE daylight
01 Feb - 18:57:28 10° WSW 19:01:39 13° SW 19:06:22 10° SSW visible
02 Feb - 10:09:32 10° SSW 10:13:05 23° SSE 10:17:08 10° E daylight
02 Feb - 12:11:17 10° WSW 12:16:05 60° S 12:22:42 10° E daylight
02 Feb - 14:14:10 10° W 14:19:55 63° S 14:28:35 10° ESE daylight
02 Feb - 16:17:34 10° W 16:24:10 37° SSW 16:33:41 10° SE daylight
02 Feb - 18:23:58 10° WSW 18:28:37 14° SW 18:34:03 10° S visible
03 Feb - 09:37:27 10° SSW 09:40:36 19° SSE 09:43:59 10° ESE daylight
03 Feb - 11:38:54 10° WSW 11:43:29 56° SSE 11:49:30 10° E daylight
03 Feb - 13:41:45 10° W 13:47:10 64° S 13:55:08 10° ESE daylight
03 Feb - 15:45:01 10° W 15:51:16 39° SSW 16:00:18 10° SE daylight
03 Feb - 17:50:44 10° WSW 17:55:37 16° SW 18:01:28 10° S visible
04 Feb - 09:05:26 10° S 09:08:05 15° SSE 09:10:49 10° ESE daylight
04 Feb - 11:06:31 10° WSW 11:10:55 50° SSE 11:16:24 10° E daylight
04 Feb - 13:09:21 10° W 13:14:27 65° S 13:21:46 10° ESE daylight
04 Feb - 15:12:31 10° W 15:18:24 41° SSW 15:26:57 10° SE daylight
04 Feb - 17:17:42 10° WSW 17:22:39 17° SW 17:28:44 10° S daylight
05 Feb - 08:33:34 10° S 08:35:34 13° SE 08:37:34 10° ESE daylight
05 Feb - 10:34:07 10° SW 10:38:22 45° SSE 10:43:24 10° E daylight
05 Feb - 12:36:56 10° W 12:41:47 65° S 12:48:30 10° ESE daylight
05 Feb - 14:40:04 10° W 14:45:36 42° SSW 14:53:37 10° SE daylight
05 Feb - 16:44:48 10° WSW 16:49:45 18° SSW 16:55:54 10° S daylight
06 Feb - 08:02:07 10° SSE 08:03:01 10° SE 08:03:55 10° SE daylight
06 Feb - 10:01:41 10° SW 10:05:52 40° SSE 10:10:29 10° E daylight
06 Feb - 12:04:30 10° W 12:09:09 65° S 12:15:19 10° E daylight
06 Feb - 14:07:37 10° W 14:12:51 44° SSW 14:20:20 10° SE daylight
06 Feb - 16:12:01 10° WSW 16:16:51 19° SSW 16:23:00 10° S daylight
07 Feb - 09:29:14 10° SW 09:33:21 35° SSE 09:37:37 10° E daylight
07 Feb - 11:32:04 10° W 11:36:34 64° S 11:42:14 10° E daylight
07 Feb - 13:35:10 10° W 13:40:09 46° SSW 13:47:07 10° SE daylight
07 Feb - 15:39:19 10° WSW 15:44:01 20° SSW 15:50:04 10° SSE daylight
